Regional Weather Roundup
Issued by NWS Binghamton, NY

Home | Current Version | Previous Version | Text Only | Print | Product List | Glossary On
Versions: 1 2 3 4 5 6 7 8 9 10 11 12 13 14 15 16 17 18 19 20 21 22 23 24 25 26 27
000
ASUS41 KBGM 301710
RWRBGM

REGIONAL WEATHER ROUNDUP
NATIONAL WEATHER SERVICE BINGHAMTON NY
100 PM EDT SAT JUL 30 2016

Note: "fair" indicates few or no clouds below 12,000 feet with no
significant weather and/or obstructions to visibility.

* = Station(s) that does not report precipitation, such as rain,
snow, etc, also no thunder or fog.

NYZ009-015>018-022>025-036-037-044>046-055>057-062-301800
...Central New York...

CITY           SKY/WX    TMP DP  RH WIND       PRES   REMARKS
Binghamton     CLOUDY    70  60  70 NE14      30.08S
Cortland       LGT RAIN  68  66  94 E6        30.08F
Dansville      CLOUDY    69  64  84 CALM      30.05F
Elmira         LGT RAIN  70  63  78 VRB6      30.05S
Ithaca         CLOUDY    68  64  87 E7        30.08F
Hamilton       CLOUDY    70  64  83 CALM      30.09S
Hornell        LGT RAIN  68  63  83 S6        30.09F
Monticello     CLOUDY    77  66  69 E8        30.08S
Norwich        LGT RAIN  66  63  88 CALM      30.11R
Oneonta        MOSUNNY   68  59  73 CALM      30.11S
Penn Yan       LGT RAIN  68  63  84 VRB3      30.07S
Rome           CLOUDY    76  62  62 S7        30.06F
Sidney         LGT RAIN  70  70 100 CALM      30.09R
Syracuse       CLOUDY    77  62  59 SE7       30.04
$$

PAZ038>040-043-044-047-048-072-301800
...Northeast Pennsylvania...

CITY           SKY/WX    TMP DP  RH WIND       PRES   REMARKS
Hazleton       CLOUDY    79  70  73 SE7       30.07S
Scranton       CLOUDY    71  68  90 E8        30.01F
$$
&&
KEY
WCI = Wind Chill Index
VSB = Visibility
HX  = Heat Index
$$




USA.gov is the U.S. government's official web portal to all federal, state and local government web resources and services.